Boothville, LA

2:27 AM CDT on September 25, 2017 (GMT -0500)
Boothville

Weather History for KBVE - August, 2014

Change the Weather History Date:

Sunday, August 31, 2014

  Actual Average (KAXO) Record (KAXO)
Temperature  
Mean Temperature 85 °F -  
Max Temperature 90 °F 83 °F 91 °F (2014)
Min Temperature 81 °F 80 °F 77 °F (2004)
Cooling Degree Days 20    
Growing Degree Days 35 (Base 50)    
Moisture  
Dew Point 77 °F    
Average Humidity 78    
Maximum Humidity 91    
Minimum Humidity 63    
Precipitation  
Precipitation 0.00 in - - ()
Sea Level Pressure  
Sea Level Pressure 30.07 in    
Wind  
Wind Speed 6 mph (ESE)    
Max Wind Speed 10 mph    
Max Gust Speed -    
Visibility 9 miles    
Events      
Averages and records for this station are not official NWS values.
T = Trace of Precipitation, MM = Missing Value Source: NWS Daily Summary

Daily Weather History Graph

Daily Weather History Graph

Search for Another Location

Airport or City:

Trip Planner

Search our weather history database for the weather conditions in past years. The results will help you decide how hot, cold, wet, or windy it might be!

Date:

Astronomy

Aug. 31, 2014 Rise Set
Actual Time 6:34 AM CDT 7:20 PM CDT
Civil Twilight 6:10 AM CDT 7:44 PM CDT
Nautical Twilight 5:41 AM CDT 8:13 PM CDT
Astronomical Twilight 5:12 AM CDT 8:42 PM CDT
Moon 11:53 AM CDT (8/31) 11:04 PM CDT (8/31)
Length of Visible Light 13h 34m
Length of Day
12h 46m
Waxing Crescent, 32% of the Moon is Illuminated
Aug 31
Waxing Crescent
Sep 2
First Quarter
Sep 8
Full
Sep 15
Last Quarter
Sep 24
New

Hourly Weather History & Observations

Time (CDT) Temp. Heat Index Dew Point Humidity Pressure Visibility Wind Dir Wind Speed Gust Speed Precip Events Conditions
12:20 AM 82.9 °F 94.8 °F 80.1 °F 91% 30.05 in 9.0 mi SE 3.5 mph - N/A   Overcast
12:51 AM 82.9 °F 94.8 °F 80.1 °F 91% 30.05 in 9.0 mi SE 4.6 mph - N/A   Overcast
1:51 AM 82.9 °F 94.8 °F 80.1 °F 91% 30.04 in 8.0 mi SE 8.1 mph - N/A   Overcast
2:51 AM 82.9 °F 93.8 °F 79.0 °F 88% 30.03 in 8.0 mi SE 6.9 mph - N/A   Overcast
3:51 AM 82.0 °F 91.6 °F 79.0 °F 90% 30.03 in 8.0 mi SE 3.5 mph - N/A   Overcast
4:39 AM 81.0 °F 88.6 °F 78.1 °F 91% 30.04 in 8.0 mi SE 5.8 mph - N/A   Scattered Clouds
4:51 AM 81.0 °F 88.6 °F 78.1 °F 91% 30.04 in 9.0 mi SE 5.8 mph - N/A   Clear
5:51 AM 81.0 °F 88.6 °F 78.1 °F 91% 30.06 in 9.0 mi SE 3.5 mph - N/A   Partly Cloudy
6:51 AM 81.0 °F 87.9 °F 77.0 °F 88% 30.07 in 8.0 mi ESE 3.5 mph - N/A   Partly Cloudy
7:51 AM 84.0 °F 96.0 °F 79.0 °F 85% 30.09 in 8.0 mi East 3.5 mph - N/A   Mostly Cloudy
8:51 AM 86.0 °F 98.3 °F 78.1 °F 77% 30.09 in 9.0 mi East 5.8 mph - N/A   Mostly Cloudy
9:51 AM 87.1 °F 98.8 °F 77.0 °F 72% 30.10 in 10.0 mi ESE 6.9 mph - N/A   Partly Cloudy
10:51 AM 87.1 °F 98.8 °F 77.0 °F 72% 30.11 in 10.0 mi ESE 8.1 mph - N/A   Mostly Cloudy
11:17 AM 88.0 °F 100.2 °F 77.0 °F 70% 30.11 in 10.0 mi ESE 9.2 mph - N/A   Mostly Cloudy
11:26 AM 88.0 °F 98.5 °F 75.9 °F 67% 30.11 in 10.0 mi ESE 10.4 mph - N/A   Mostly Cloudy
11:51 AM 88.0 °F 97.5 °F 75.0 °F 65% 30.10 in 10.0 mi ESE 8.1 mph - N/A   Scattered Clouds
12:51 PM 89.1 °F 99.1 °F 75.0 °F 63% 30.09 in 10.0 mi ESE 9.2 mph - N/A   Partly Cloudy
1:51 PM 89.1 °F 100.2 °F 75.9 °F 65% 30.08 in 10.0 mi ESE 10.4 mph - N/A   Partly Cloudy
2:51 PM 89.1 °F 100.2 °F 75.9 °F 65% 30.06 in 10.0 mi ESE 9.2 mph - N/A   Clear
3:51 PM 88.0 °F 100.2 °F 77.0 °F 70% 30.05 in 10.0 mi ESE 10.4 mph - N/A   Partly Cloudy
4:51 PM 89.1 °F 100.2 °F 75.9 °F 65% 30.05 in 10.0 mi ESE 9.2 mph - N/A   Partly Cloudy
5:51 PM 87.1 °F 96.3 °F 75.0 °F 67% 30.05 in 10.0 mi SE 10.4 mph - N/A   Clear
6:51 PM 86.0 °F 96.0 °F 75.9 °F 72% 30.05 in 10.0 mi SE 8.1 mph - N/A   Clear
7:51 PM 84.0 °F 92.6 °F 75.9 °F 76% 30.05 in 10.0 mi SE 5.8 mph - N/A   Clear
8:51 PM 84.0 °F 93.7 °F 77.0 °F 79% 30.06 in 10.0 mi SE 5.8 mph - N/A   Clear
9:51 PM 82.9 °F 92.8 °F 78.1 °F 85% 30.07 in 10.0 mi ESE 4.6 mph - N/A   Clear
10:51 PM 82.9 °F 92.8 °F 78.1 °F 85% 30.07 in 10.0 mi SE 5.8 mph - N/A   Clear
11:51 PM 82.9 °F 92.8 °F 78.1 °F 85% 30.05 in 10.0 mi SE 6.9 mph - N/A   Clear